Location: Castera
(43.1761°N, 0.2892°E)
Time: 08:44:08
(UTC+00:00)

Daily predictions for brighter satellites

Satellite Brightness Start Highest point End
(mag) Time Altitude Azimuth Time Altitude Azimuth Time Altitude Azimuth
Feng Yun 1-1 Rocket 4.4 16:47:53 10° SE 16:53:00 46° ENE 16:58:07 10° N
Cosmos 2219 Rocket 2.3 16:49:41 10° S 16:55:10 59° ESE 17:00:42 10° NNE
BREEZE-M R/B 4.0 16:50:31 10° W 16:57:30 48° NNW 17:01:04 10° NE
Cosmos 1844 Rocket 3.3 16:57:30 10° NNW 17:03:01 64° WSW 17:08:31 10° S
Cosmos 1733 Rocket 3.6 16:59:12 10° N 17:03:15 35° ENE 17:07:16 10° SE
Cosmos 1536 4.1 17:02:18 10° NNE 17:05:17 20° ENE 17:08:15 10° ESE
Cosmos 1269 Rocket 4.4 17:00:21 10° SSW 17:05:38 68° WNW 17:10:57 10° NNE
SMAP 3.2 17:01:14 10° SSE 17:05:45 54° ENE 17:10:19 10° N
PSLV R/B 3.9 17:02:41 10° NNE 17:06:53 79° ESE 17:10:59 10° S
Cosmos 1602 4.1 17:03:10 10° NNW 17:07:02 71° W 17:10:54 10° S
Cosmos 1500 3.9 17:05:20 10° NNE 17:08:44 31° ENE 17:12:05 10° SE
CZ-4 R/B 2.9 17:07:47 10° E 17:09:55 14° ENE 17:12:01 10° NNE
Cosmos 1869 Rocket 4.3 17:05:50 10° NNW 17:10:11 58° W 17:14:32 10° S
Cosmos 1340 3.1 17:06:35 10° NNW 17:10:21 67° W 17:14:05 10° S
ALOS 4.1 17:09:05 10° SSW 17:13:20 35° W 17:17:38 10° NNW
H-2A R/B 2.7 17:10:27 10° SSE 17:14:04 55° ENE 17:17:42 10° N
Cosmos 2180 Rocket 4.5 17:10:17 10° N 17:16:34 72° E 17:22:53 10° SSE
ATLAS 2AS CENTAUR R/B 3.8 17:09:59 10° WSW 17:17:41 50° NW 17:25:27 10° NNE
Lacrosse 5 rocket 1.5 17:14:02 10° SSW 17:18:18 60° SE 17:21:46 14° NE
COSMOS 2428 2.8 17:15:03 10° SSW 17:20:43 88° WNW 17:26:27 10° NNE
Cosmos 304 Rocket 3.8 17:16:04 10° NNW 17:20:55 89° ENE 17:25:43 10° SSE
YAOGAN 6 3.8 17:19:31 10° ESE 17:22:13 21° ENE 17:24:57 10° NNE
Cosmos 1302 Rocket 4.2 17:20:40 10° NNW 17:25:58 81° WSW 17:31:12 10° SSE
Meteor 1-5 Rocket 4.1 17:20:26 10° N 17:26:01 71° ENE 17:31:24 10° SSE
SKYMED 2 4.5 17:23:42 10° NE 17:27:28 28° E 17:31:12 10° SSE
SL-4 R/B 2.3 17:24:26 10° WSW 17:28:04 52° NNW 17:31:03 16° NE
IRS-1C Rocket 4.2 17:23:00 10° SSE 17:28:17 82° WSW 17:33:35 10° NNW
Okean O Rocket 3.8 17:25:50 10° SSW 17:29:37 29° W 17:33:25 10° NW
Cosmos 2251 Rocket 3.6 17:25:24 10° S 17:30:36 58° ESE 17:35:48 10° NNE
NOSS 0 Rocket 4.0 17:25:11 10° S 17:31:15 59° ESE 17:37:22 10° NNE
Cosmos 1092 Rocket 4.5 17:25:31 10° SSE 17:31:15 38° E 17:36:58 10° NNE
ATLAS 5 CENTAUR R/B 0.8 17:32:28 10° SSW 17:35:07 55° SE 17:35:54 30° ENE
Cosmos 2242 Rocket 4.0 17:30:53 10° SSE 17:35:09 42° E 17:39:29 10° NNE
FengYun 1-2 T 4.5 17:32:37 10° SE 17:37:47 44° ENE 17:42:59 10° N
Cosmos 1862 Rocket 3.4 17:33:44 10° S 17:38:03 73° E 17:42:25 10° NNE
ERBS 3.3 17:36:16 10° WNW 17:39:30 48° SW 17:42:44 10° SSE
NOSS 2 (A) 3.7 17:38:07 10° NW 17:40:32 81° NE 17:42:28 14° SE
Cosmos 1703 Rocket 4.5 17:36:56 10° SSE 17:40:42 28° E 17:42:45 20° NE
Okean-O 2.5 17:37:40 10° SSE 17:42:04 71° ENE 17:46:30 10° N
USA 215 4.2 17:44:09 13° NE 17:49:20 36° NNW 17:55:09 10° W
Cosmos 1666 2.9 17:49:58 10° N 17:53:33 41° ENE 17:57:05 10° SSE
Envisat 2.9 17:48:40 10° SSE 17:53:44 82° ENE 17:58:50 10° N
Cosmos 2278 Rocket 2.1 17:50:56 10° NNW 17:56:38 83° ENE 18:02:17 10° SSE
BREEZE-M DEB (TANK) 2.3 17:59:08 10° W 18:03:37 55° N 18:04:16 44° NE
Cosmos 407 Rocket 4.4 17:59:41 10° SSE 18:03:54 28° ESE 18:03:54 28° ESE
SL-16 R/B 2.8 18:04:06 10° SSE 18:09:08 34° ESE 18:09:56 32° E
Shenzhou-11 Module 2.0 18:08:13 10° W 18:10:38 65° W 18:10:38 65° W
Cosmos 2369 Rocket 4.2 18:08:36 10° NNE 18:09:07 11° NNE 18:09:07 11° NNE
Cosmos 1992 Rocket 4.0 18:06:27 10° NNW 18:11:43 83° WSW 18:16:55 10° SSE
Nadezhda 4 Rocket 4.3 18:05:28 10° SSW 18:11:45 69° W 18:18:05 10° N
Cosmos 2333 Rocket 3.6 18:07:22 10° WSW 18:12:36 36° NW 18:17:54 10° N
RESURS DK-1 4.0 18:10:22 10° WSW 18:14:02 31° NW 18:17:10 13° N
STARLINK-46 4.4 18:12:00 10° W 18:14:06 24° NNW 18:14:06 24° NNW
Cosmos 1908 Rocket 3.4 18:10:00 10° N 18:14:26 82° E 18:18:48 10° S
COSMO-SKYMED 1 2.5 18:12:09 16° NNE 18:15:36 88° WNW 18:19:56 10° SSW
NOAA 15 4.5 18:10:45 10° SSE 18:15:57 67° ENE 18:21:11 10° N
ISS -3.8 18:13:49 10° NW 18:17:00 72° N 18:17:00 72° N
Cosmos 1553 Rocket 4.4 18:11:46 10° N 18:17:40 39° ENE 18:23:36 10° SE
Cosmos 1428 Rocket 4.5 18:12:10 10° SSE 18:18:06 54° E 18:23:49 12° NNE
Meteor 1-27 Rocket 4.4 18:14:12 10° SSW 18:19:46 56° WNW 18:25:31 10° N
Cosmos 1812 4.5 18:16:25 10° SW 18:19:54 32° WNW 18:23:25 10° N
STARLINK-60 3.5 18:18:03 10° SW 18:20:54 50° S 18:20:54 50° S
Cosmos 2237 Rocket 2.3 18:16:05 10° SSW 18:21:46 74° WNW 18:25:48 20° NNE
YAOGAN 1 2.4 18:19:06 10° SSE 18:23:24 72° ENE 18:27:43 10° N
BREEZE-M DEB (TANK) 2.2 18:24:05 10° WNW 18:27:30 58° WNW 18:27:30 58° WNW
USA 116 4.3 18:24:32 19° NNE 18:28:29 80° ESE 18:33:39 10° S
Cosmos 1900 4.2 18:28:12 10° NNW 18:33:07 83° WSW 18:35:41 28° SSE
Cosmos 2026 Rocket 3.8 18:28:22 10° S 18:34:26 83° E 18:40:31 10° N
Cosmos 2219 Rocket 4.2 18:35:06 10° WSW 18:39:32 24° NW 18:44:01 10° N
Okean 1-7 3.0 18:37:21 10° SSW 18:41:40 77° W 18:42:13 65° NNW
Meteor 1-18 Rocket 4.1 18:38:07 10° S 18:43:49 68° E 18:44:37 60° NE
CZ-4 R/B 2.3 18:40:46 10° S 18:44:34 47° W 18:48:20 10° NNW
DMSP B5D1-3 4.3 18:47:33 77° ENE 18:47:46 79° ESE 18:52:53 10° S
Cosmos 1417 Rocket 4.3 18:42:24 10° N 18:48:30 63° E 18:54:34 10° SSE
Cosmos 1655 Rocket 4.4 18:45:50 10° SSE 18:50:25 45° SE 18:50:25 45° SE
Cosmos 1190 Rocket 4.4 18:48:59 10° S 18:52:51 49° S 18:52:51 49° S
Cosmos 2297 3.6 18:51:18 10° NNW 18:56:47 77° NNE 18:56:47 77° NNE
Lacrosse 5 rocket 3.1 18:54:09 10° W 18:57:26 26° NW 18:57:26 26° NW
CSL-04 Rocket 4.3 18:56:21 10° S 19:01:30 54° W 19:06:41 10° NNW
Cosmos 1943 Rocket 4.1 18:56:27 10° N 18:57:45 16° N 18:57:45 16° N
SL-4 R/B 4.2 19:05:03 10° WNW 19:06:39 19° NW 19:06:39 19° NW
SL-16 R/B 3.7 19:47:55 10° SW 19:51:53 34° W 19:51:53 34° W
